Location: Dannhausen
(51.8650°N, 10.1026°E)
Time: 06:54:04
(UTC+00:00)

SL-16 R/B - Visible Passes

Search period start: 11 August 2020 00:00
Search period end: 21 August 2020 00:00
Orbit: 842 x 846 km, 71.0° (Epoch: 11 August)

Date Brightness Start Highest point End Pass type
(mag) Time Alt. Az. Time Alt. Az. Time Alt. Az.
11 Aug 2.2 20:53:04 10° NNW 20:58:47 83° WSW 21:02:09 26° SSE visible
11 Aug 4.2 22:38:39 10° WNW 22:42:02 16° W 22:44:01 14° WSW visible
12 Aug 2.2 20:38:45 10° NNW 20:44:29 85° WSW 20:48:11 23° SSE visible
12 Aug 4.2 22:24:15 10° WNW 22:27:45 17° W 22:30:02 14° SW visible
13 Aug 2.2 20:24:26 10° NNW 20:30:10 88° WSW 20:34:14 20° SSE visible
13 Aug 4.2 22:09:51 10° WNW 22:13:28 18° W 22:16:06 13° SW visible
14 Aug 2.2 20:10:07 10° NNW 20:15:51 90° NE 20:20:20 17° SSE visible
14 Aug 4.2 21:55:28 10° WNW 21:59:11 18° W 22:02:11 12° SW visible
15 Aug 2.2 19:55:48 10° NNW 20:01:32 88° ENE 20:06:27 14° SSE visible
15 Aug 4.2 21:41:04 10° WNW 21:44:54 19° W 21:48:19 11° SW visible
16 Aug 2.2 19:41:29 10° NNW 19:47:13 85° ENE 19:52:38 11° SSE visible
16 Aug 4.2 21:26:41 10° NW 21:30:36 19° W 21:34:31 10° SW visible
17 Aug 2.2 19:27:10 10° NNW 19:32:53 83° ENE 19:38:35 10° SSE visible
17 Aug 4.2 21:12:19 10° NW 21:16:19 20° W 21:20:19 10° SW visible
18 Aug 2.3 19:12:51 10° NNW 19:18:34 81° ENE 19:24:15 10° SSE visible
18 Aug 4.2 20:57:56 10° NW 21:02:02 21° W 21:06:07 10° SSW visible
19 Aug 4.2 20:43:33 10° NW 20:47:44 22° W 20:51:54 10° SSW visible
20 Aug 4.2 20:29:11 10° NW 20:33:27 22° WSW 20:37:42 10° SSW visible
